Weather History for Lima, OH

Change the Weather History Date:

Tuesday, December 4, 2012

  Actual Average (KFDY) Record (KFDY)
Temperature  
Mean Temperature 52 °F -  
Max Temperature 62 °F 38 °F 64 °F (1998)
Min Temperature 41 °F 25 °F 4 °F (1966)
Degree Days  
Heating Degree Days 14    
Growing Degree Days 2 (Base 50)    
Moisture  
Dew Point 47 °F    
Average Humidity 81    
Maximum Humidity 94    
Minimum Humidity 67    
Precipitation  
Precipitation 0.14 in - - ()
Sea Level Pressure  
Sea Level Pressure 30.04 in    
Wind  
Wind Speed 13 mph (West)    
Max Wind Speed 17 mph    
Max Gust Speed 25 mph    
Visibility 8 miles    
Events Rain    
Averages and records for this station are not official NWS values.
T = Trace of Precipitation, MM = Missing Value Source: NWS Daily Summary

Daily Weather History Graph

Daily Weather History Graph

Search for Another Location

Airport:

Trip Planner

Search our weather history database for the weather conditions in past years. The results will help you decide how hot, cold, wet, or windy it might be!

Date:

Astronomy

Dec. 04, 2012 Rise Set
Actual Time 7:44 AM EST 5:08 PM EST
Civil Twilight 7:13 AM EST 5:39 PM EST
Nautical Twilight 6:39 AM EST 6:13 PM EST
Astronomical Twilight 6:06 AM EST 6:46 PM EST
Moon 10:56 PM EST (12/4) 11:36 AM EST (12/4)
Length of Visible Light 10h 25m
Length of Day
9h 24m
Waning Gibbous, 69% of the Moon is Illuminated
Dec 4
Waning Gibbous
Dec 6
Last Quarter
Dec 13
New
Dec 20
First Quarter
Dec 28
Full

Hourly Weather History & Observations

Time (EST) Temp. Windchill Dew Point Humidity Pressure Visibility Wind Dir Wind Speed Gust Speed Precip Events Conditions
12:53 AM 62.1 °F - 52.0 °F 70% 30.01 in 10.0 mi SSW 17.3 mph 25.3 mph N/A   Clear
1:53 AM 62.1 °F - 51.1 °F 67% 30.01 in 10.0 mi SSW 15.0 mph 24.2 mph N/A   Clear
2:53 AM 61.0 °F - 50.0 °F 67% 30.01 in 10.0 mi SSW 11.5 mph 21.9 mph N/A   Mostly Cloudy
3:53 AM 60.1 °F - 50.0 °F 69% 30.00 in 10.0 mi South 16.1 mph 20.7 mph N/A   Clear
4:53 AM 59.0 °F - 50.0 °F 72% 30.00 in 10.0 mi South 13.8 mph - N/A   Mostly Cloudy
5:53 AM 60.1 °F - 50.0 °F 69% 29.99 in 10.0 mi SSW 13.8 mph - N/A   Overcast
6:53 AM 60.1 °F - 50.0 °F 69% 30.00 in 10.0 mi SSW 11.5 mph 20.7 mph N/A   Mostly Cloudy
7:53 AM 59.0 °F - 50.0 °F 72% 30.00 in 10.0 mi SSW 11.5 mph 21.9 mph N/A   Mostly Cloudy
8:04 AM 60.8 °F - 50.0 °F 68% 30.01 in 10.0 mi SSW 12.7 mph 20.7 mph N/A   Mostly Cloudy
8:53 AM 60.1 °F - 51.1 °F 72% 30.00 in 10.0 mi SSW 13.8 mph 25.3 mph N/A   Overcast
9:53 AM 61.0 °F - 51.1 °F 70% 30.01 in 10.0 mi SSW 12.7 mph - N/A   Overcast
10:53 AM 61.0 °F - 52.0 °F 72% 30.01 in 10.0 mi SW 11.5 mph - N/A   Overcast
11:53 AM 59.0 °F - 54.0 °F 83% 30.00 in 4.0 mi West 10.4 mph 20.7 mph 0.00 in Rain Light Rain
12:01 PM 57.2 °F - 53.6 °F 88% 30.01 in 2.5 mi WNW 15.0 mph - 0.00 in   Overcast
12:08 PM 53.6 °F - 51.8 °F 94% 30.01 in 2.0 mi NW 13.8 mph - 0.00 in Rain Light Rain
12:14 PM 53.6 °F - 50.0 °F 88% 30.01 in 3.0 mi NW 9.2 mph - 0.00 in   Overcast
12:28 PM 51.8 °F - 48.2 °F 88% 30.01 in 2.5 mi NW 11.5 mph - 0.00 in   Overcast
12:39 PM 51.8 °F - 48.2 °F 88% 30.02 in 1.8 mi NW 11.5 mph - 0.00 in Rain Light Rain
12:53 PM 51.1 °F - 48.0 °F 89% 30.02 in 1.2 mi NW 11.5 mph - 0.06 in Rain Rain
1:05 PM 50.0 °F - 48.2 °F 94% 30.01 in 3.0 mi NNW 11.5 mph - 0.02 in Rain Light Rain
1:13 PM 50.0 °F - 46.4 °F 87% 30.02 in 4.0 mi NW 13.8 mph - 0.02 in Rain Light Rain
1:25 PM 50.0 °F - 46.4 °F 87% 30.02 in 5.0 mi NW 12.7 mph - 0.03 in Rain Light Rain
1:53 PM 48.0 °F - 45.0 °F 89% 30.02 in 6.0 mi NW 9.2 mph - 0.05 in Rain Light Rain
2:01 PM 48.2 °F - 44.6 °F 87% 30.03 in 10.0 mi NW 12.7 mph - 0.00 in Rain Light Rain
2:08 PM 46.4 °F 40.7 °F 44.6 °F 93% 30.03 in 10.0 mi NW 12.7 mph - 0.00 in Rain Light Rain
2:53 PM 46.9 °F - 43.0 °F 86% 30.04 in 10.0 mi NW 6.9 mph - 0.02 in Rain Light Rain
3:53 PM 46.9 °F - 41.0 °F 80% 30.05 in 10.0 mi NNW 8.1 mph - 0.00 in Rain Light Rain
4:53 PM 46.0 °F 43.9 °F 41.0 °F 83% 30.08 in 10.0 mi West 4.6 mph - 0.01 in   Overcast
5:53 PM 46.9 °F - 41.0 °F 80% 30.11 in 10.0 mi West 10.4 mph - 0.00 in   Overcast
6:53 PM 46.0 °F 41.9 °F 42.1 °F 86% 30.12 in 10.0 mi West 8.1 mph - N/A   Overcast
7:53 PM 45.0 °F 40.6 °F 39.9 °F 82% 30.14 in 10.0 mi WSW 8.1 mph - N/A   Clear
8:53 PM 44.1 °F 39.5 °F 39.9 °F 85% 30.14 in 10.0 mi WSW 8.1 mph - N/A   Clear
9:53 PM 41.0 °F 36.4 °F 37.9 °F 89% 30.16 in 10.0 mi WSW 6.9 mph - N/A   Clear
10:53 PM 43.0 °F 37.7 °F 39.0 °F 86% 30.16 in 10.0 mi WSW 9.2 mph - N/A   Clear
11:53 PM 41.0 °F 35.8 °F 37.0 °F 86% 30.17 in 10.0 mi West 8.1 mph - N/A   Clear